Location: Bacharowice
(49.9333°N, 19.5833°E)
Time: 23:07:00
(UTC+00:00)

Cosmos 1666 Rocket - Pass Details

Date: 11 May 2021
Orbit: 603 x 634 km, 82.5° (Epoch: 21 June)

Event Time Altitude Azimuth Distance (km) Brightness Sun altitude
Rises 19:23:17 0° 347° (NNW) 2,913 8.1 -9.6°
Reaches altitude 10° 19:25:33 10° 345° (NNW) 1,997 7.2 -9.8°
Maximum altitude 19:29:56 67° 263° (W) 672 3.9 -10.3°
Drops below altitude 10° 19:34:14 10° 182° (S) 1,962 5.7 -10.8°
Enters shadow 19:35:02 - 181° (S) 2,283 6.0 -10.9°
